Skip Page Navigation
NASA JPL Caltech
NASA Logo - Jet Propulsion Laboratory + View the NASA Portal
+ Center for Near-Earth Object Studies
JPL Home Earth Solar System Stars & Galaxies Technology
JPL Solar System Dynamics
BODIES ORBITS EPHEMERIDES TOOLS PHYSICAL DATA DISCOVERY FAQ SITE MAP
JPL Small-Body Database Browser
Search: [ help ]  
413468 (2005 GY41)
Classification: Main-belt Asteroid          SPK-ID: 2413468
Ephemeris | Orbit Diagram | Orbital Elements | Mission Design | Physical Parameters | Discovery Circumstances ]

[ hide orbit diagram ]

For accurate long-term ephemerides, please instead use our Horizons system.This orbit viewer was implemented using two-body methods, and hence should not be used for determining accurate long-term trajectories (over several years or decades) or planetary encounter circumstances.


[ revert to old Java-based viewer ]

Orbital Elements at Epoch 2459000.5 (2020-May-31.0) TDB
Reference: JPL 13 (heliocentric ecliptic J2000)
 Element Value Uncertainty (1-sigma)   Units 
e .151205940248506 8.8079e-08  
a 2.367791374173018 2.4818e-08 au
q 2.009767253128885 1.9595e-07 au
i 2.495186178170037 9.2038e-06 deg
node 167.5617314770674 0.00013716 deg
peri 347.7974202065597 0.00013934 deg
M 60.48982113823475 2.4745e-05 deg
tp 2458776.888889918986
(2019-Oct-20.38888992)
8.9795e-05 TDB
period 1330.802407982031
3.64
2.0923e-05
5.728e-08
d
yr
n .2705134870817433 4.2531e-09 deg/d
Q 2.725815495217151 2.8571e-08 au
  Orbit Determination Parameters
   # obs. used (total)      98  
   data-arc span      5519 days (15.11 yr)  
   first obs. used      2005-03-08  
   last obs. used      2020-04-17  
   planetary ephem.      DE431  
   SB-pert. ephem.      SB431-N16  
   condition code      0  
   norm. resid. RMS      .65353  
   source      ORB  
   producer      Otto Matic  
   solution date      2020-May-22 02:07:49  

Additional Information
 Earth MOID = 1.01963 au 
 Jupiter MOID = 2.26245 au 
 T_jup = 3.530 
[ show covariance matrix ]

Ephemeris | Orbit Diagram | Orbital Elements | Mission Design | Physical Parameters | Discovery Circumstances ]

Physical Parameter Table
Parameter Symbol Value Units Sigma Reference Notes
absolute magnitude H 18.0   n/a MPO419033  

413468 (2005 GY41)          Discovered 2005-Mar-08 by Mt. Lemmon Survey at Mount Lemmon
Reference: Last Updated: 2014-11-10

Alternate Designations
 2005 GY41 = 2007 VB178 
Ephemeris | Orbit Diagram | Orbital Elements | Mission Design | Physical Parameters | Discovery Circumstances ]
ABOUT SSD CREDITS/AWARDS PRIVACY/COPYRIGHT GLOSSARY LINKS
FirstGov 2020-Aug-12 10:57 UT
(server date/time)  
NASA Home Page
Site Manager:   Ryan S. Park
Webmaster  Alan B. Chamberlin